This is the latest recevied weather packets stored in our database for station/object IN3XSV-13. If no packets are shown the sender has not sent any weather packets the latest 10 day(s).
| Time | Temp. | Humidity | Pressure | Rain* | Wind** | Luminosity | Snow |
|---|---|---|---|---|---|---|---|
| 1777540141 | 16.67° C | 58% | 9962.6 hPa | 0 mm | - | - | - |
| 1777539842 | 16.67° C | 59% | 9962.6 hPa | 0 mm | - | - | - |
| 1777539542 | 17.22° C | 57% | 9962.6 hPa | 0 mm | - | - | - |
| 1777539242 | 17.22° C | 59% | 9962.6 hPa | 0 mm | - | - | - |
| 1777538942 | 16.67° C | 59% | 9962.5 hPa | 0 mm | - | - | - |
| 1777538642 | 16.67° C | 58% | 9962.5 hPa | 0 mm | - | - | - |
| 1777538342 | 16.67° C | 60% | 9962.4 hPa | 0 mm | - | - | - |
| 1777538042 | 16.67° C | 59% | 9962.5 hPa | 0 mm | - | - | - |
| 1777537742 | 17.22° C | 59% | 9962.5 hPa | 0 mm | - | - | - |
| 1777537442 | 16.67° C | 60% | 9962.4 hPa | 0 mm | - | - | - |
| 1777537142 | 17.78° C | 59% | 9962.4 hPa | 0 mm | - | - | - |
| 1777536842 | 17.22° C | 60% | 9962.3 hPa | 0 mm | - | - | - |
| 1777536542 | 16.67° C | 59% | 9962.4 hPa | 0 mm | - | - | - |
| 1777536242 | 16.67° C | 59% | 9962.3 hPa | 0 mm | - | - | - |
| 1777535942 | 16.67° C | 59% | 9962.3 hPa | 0 mm | - | - | - |
| 1777535642 | 16.67° C | 63% | 9962.3 hPa | 0 mm | - | - | - |
| 1777535342 | 15.56° C | 62% | 9962.3 hPa | 0 mm | - | - | - |
| 1777535042 | 16.11° C | 60% | 9962.2 hPa | 0 mm | - | - | - |
| 1777534742 | 16.11° C | 60% | 9962.3 hPa | 0 mm | - | - | - |
| 1777534442 | 15.56° C | 62% | 9962.3 hPa | 0 mm | - | - | - |
| 1777534142 | 15° C | 65% | 9962.3 hPa | 0 mm | - | - | - |
| 1777533842 | 14.44° C | 66% | 9962.2 hPa | 0 mm | - | - | - |
| 1777533542 | 15° C | 65% | 9962.2 hPa | 0 mm | - | - | - |
| 1777533242 | 15.56° C | 62% | 9962.2 hPa | 0 mm | - | - | - |
| 1777532942 | 17.78° C | 60% | 9962.3 hPa | 0 mm | - | - | - |
* Rain latest hour (hover to see other rain measurements)
** Current wind speed in m/s (hover to see current wind gust speed)